Preview of NWS' New Version of Forecast
This preview is not operational and should not be used for support decisions.

Regional Weather Roundup (RWR)

Issued by Little Rock, AR (LZK)

                            
000
ASUS44 KLZK 200905
RWRLZK

WEATHER ROUNDUP FOR ARKANSAS
NATIONAL WEATHER SERVICE LITTLE ROCK AR
300 AM CST WED FEB 20 2019

NOTE: "FAIR" INDICATES FEW OR NO CLOUDS BELOW 12,000 FEET WITH NO
SIGNIFICANT WEATHER AND/OR OBSTRUCTIONS TO VISIBILITY.

ARZ001-003-010-029-201000-
NORTHWEST ARKANSAS
  
CITY           SKY/WX    TMP DP  RH WIND       PRES   REMARKS
FAYETTEVILLE   CLOUDY    35  35 100 CALM      29.84R FOG              
FORT SMITH     CLOUDY    37  35  92 SW3       29.88S                  
HARRISON       FOG       32  31  96 E5        29.80F VSB 3/4 WCI  27  
BENTONVILLE    CLOUDY    34  33  96 S3        29.84S FOG              
ROGERS         CLOUDY    33  33 100 S3        29.83F FOG              
HIGHFILL       CLOUDY    36  32  85 CALM      29.82F FOG              
$$

ARZ004-005-016-201000-
NORTH CENTRAL ARKANSAS
  
CITY           SKY/WX    TMP DP  RH WIND       PRES   REMARKS
BATESVILLE     CLOUDY    37  37 100 CALM      29.86F FOG              
FLIPPIN        CLOUDY    35  34  96 CALM      29.86F FOG              
$$

ARZ040-041-201000-
WEST CENTRAL ARKANSAS
  
CITY           SKY/WX    TMP DP  RH WIND       PRES   REMARKS
MENA           CLOUDY    39  37  93 CALM      29.85F                  
MOUNT IDA      CLOUDY    39  38  96 CALM      29.83S                  
$$

ARZ009-017-025-026-028-201000-
NORTHEAST ARKANSAS
  
CITY           SKY/WX    TMP DP  RH WIND       PRES   REMARKS
CORNING        CLOUDY    39  39 100 NE6       29.85S                  
JONESBORO      LGT RAIN  41  41 100 E15       29.85F                  
NEWPORT        CLOUDY    40  38  93 E13       29.85F                  
WALNUT RIDGE   CLOUDY    38  37  97 NE6       29.84F                  
BLYTHEVILLE    LGT RAIN  40  40 100 E15G22    29.89F                  
$$

ARZ022-023-033-042-044-201000-
CENTRAL ARKANSAS
  
CITY           SKY/WX    TMP DP  RH WIND       PRES   REMARKS
LITTLE ROCK    CLOUDY    38  37  97 SE6       29.86F                  
N LITTLE ROCK    N/A     37  37 100 CALM      29.90F                  
BENTON         CLOUDY    39  37  93 CALM      29.86F                  
JACKSONVILLE   CLOUDY    39  39  99 SE3       29.84F                  
CONWAY         CLOUDY    41  41 100 CALM      29.86S                  
SEARCY         CLOUDY    39  39 100 E5        29.86F                  
HOT SPRINGS    CLOUDY    40  40 100 CALM      29.85F                  
RUSSELLVILLE   CLOUDY    39  38  96 CALM      29.86S                  
CLINTON        CLOUDY    39  39 100 CALM      29.86S                  
$$

ARZ036-201000-
EAST ARKANSAS
  
CITY           SKY/WX    TMP DP  RH WIND       PRES   REMARKS
WEST MEMPHIS   LGT RAIN  41 N/A N/A NE10      29.86F                  
$$

ARZ050-053-066-070-073-201000-
SOUTHWEST ARKANSAS
  
CITY           SKY/WX    TMP DP  RH WIND       PRES   REMARKS
ARKADELPHIA    CLOUDY    39  39 100 CALM      29.88F                  
CAMDEN         CLOUDY    39  36  87 CALM      29.88F FOG              
TEXARKANA      CLOUDY    39  38  96 CALM      29.88F                  
EL DORADO      CLOUDY    38  37  97 NW8       29.90R FOG              
DE QUEEN       CLOUDY    41  41 100 SW5       29.88S                  
$$

ARZ056-057-069-201000-
SOUTHEAST ARKANSAS
  
CITY           SKY/WX    TMP DP  RH WIND       PRES   REMARKS
PINE BLUFF     CLOUDY    38  38 100 N9        29.89R FOG              
STUTTGART      LGT RAIN  39  38  96 N10       29.88S                  
MONTICELLO     CLOUDY    40  39  97 NW3       29.85F                  

$$